Regional Weather Roundup
Issued by NWS

Home | Current Version | Previous Version | Graphics & Text | Print | Product List | Glossary On
Versions: 1 2 3 4 5 6 7 8 9 10 11 12 13 14 15 16 17 18 19 20 21 22 23 24 25 26 27 28 29 30 31 32 33 34 35 36 37 38 39 40 41 42 43 44 45 46 47 48 49 50
000
ASUS43 KLOT 060712
RWRIL

ILLINOIS REGIONAL WEATHER ROUNDUP
NATIONAL WEATHER SERVICE CHICAGO/ROMEOVILLE IL
200 AM CDT MON JUL 06 2015

NOTE: "FAIR" INDICATES FEW OR NO CLOUDS BELOW 12,000 FEET WITH NO
SIGNIFICANT WEATHER AND/OR OBSTRUCTIONS TO VISIBILITY.

* THESE STATIONS ARE NOT UNDER NWS QUALITY CONTROL. THEY ALSO MAY NOT
  REPORT WEATHER SUCH AS PRECIPITATION OR FOG.

ILZ001-002-007-009-015-016-024-060800-
NORTHWEST ILLINOIS

CITY           SKY/WX    TMP DP  RH WIND       PRES   REMARKS
MOLINE         CLEAR     69  65  86 VRB3      29.95F FOG
STERLING*      CLEAR     68  64  88 S3        29.98S
SAVANNA*       CLEAR     67  64  89 S3        29.96S FOG
$$

ILZ003-004-008-010-011-017-018-060800-
NORTH CENTRAL ILLINOIS

CITY           SKY/WX    TMP DP  RH WIND       PRES   REMARKS
ROCKFORD       PTCLDY    66  62  87 S7        30.00S
FREEPORT*      CLEAR     64  63  94 S7        29.99R FOG
ROCHELLE*      CLEAR     63  62  96 SE6       30.00S FOG
DE KALB*       MOCLDY    63  61  91 S6        30.01S FOG
PERU*          CLEAR     68  64  84 S6        30.01R
$$

ILZ005-006-012>014-019>023-060800-
NORTHEAST ILLINOIS

CITY           SKY/WX    TMP DP  RH WIND       PRES   REMARKS
CHICAGO-OHARE  CLEAR     69  62  78 S7        29.99S
CHICAGO-MIDWAY CLEAR     74  63  68 S6        30.00S
AURORA         CLEAR     68  61  78 S3        30.01R HAZE
LANSING*       CLEAR     65  60  82 S3        30.01F
JOLIET*        CLEAR     69  65  86 CALM      30.01S FOG
WAUKEGAN       CLEAR     62  60  93 SW3       30.00R
DUPAGE AIRPORT CLEAR     66  62  87 S6        30.00R
KANKAKEE*      CLEAR     68  65  88 S5        30.02F
WHEELING       CLEAR     67  60  78 S3        30.01S
MORRIS*        CLEAR     66  63  89 S5        29.99S FOG
ROMEOVILLE*    CLEAR     67  62  84 S6        30.01S
NORTHERLY ISL    N/A     72  61  68 S6          N/A
$$

LMZ740>746-060800-
SOUTHERN LAKE MICHIGAN

STATION/POSITION SKY/WX   TEMP    WIND        PRES    VSBY  WAVE
                          AIR SEA DIR/SP/G                  HT/PER
                          (F)     (DEG/KT/KT) (MB)    (MI)  (FT/S)
HARRISON CRIB              72     180/ 11/ 13   N/A
BURNHAM HARBOR             72     190/  6/  8   N/A
CALUMET HARBOR             72     180/  5/  6   N/A
BURNS HARBOR               71     190/  7/ 10 1017.3R
MICHIGAN CITY              72     140/  8/ 11   N/A
MICHIGAN CITY 6N           68 67  180/  8/  8   N/A           1
ST. JOSEPH                 68 65  200/ 10/ 12   N/A           1
$$

ILZ025>027-034>036-040-047-049-050-058-095>099-060800-
WEST-CENTRAL ILLINOIS

CITY           SKY/WX    TMP DP  RH WIND       PRES   REMARKS
QUINCY         CLEAR     72  68  87 S8        29.96F FOG
GALESBURG*     CLEAR     68  65  92 SE7       29.97F FOG
MACOMB*        CLEAR     68  67  96 S3        29.99F FOG
JACKSONVILLE*  CLEAR     74  68  83 S7        29.99S
PITTSFIELD*    CLEAR     71  67  89 S3        30.00S FOG
$$

ILZ028>032-037-038-041>044-048-051>054-059>061-060800-
CENTRAL ILLINOIS

CITY           SKY/WX    TMP DP  RH WIND       PRES   REMARKS
PONTIAC        CLEAR     66  65  96 CALM      30.02S FOG
BLOOMINGTON    CLEAR     67  65  93 S7        30.03F
DECATUR        CLEAR     69  64  84 S6        30.02S
PEORIA         CLEAR     72  64  76 S7        30.00S
LACON*         CLEAR     69  63  82 SE3       29.99S
LINCOLN*       CLEAR     67  63  89 S3        30.01F FOG
SPRINGFIELD    CLEAR     73  65  75 S10       30.00F
TAYLORVILLE    CLEAR     66  63  88 S5        30.02S
$$

ILZ033-039-045-046-055>057-062-063-060800-
EAST-CENTRAL ILLINOIS

CITY           SKY/WX    TMP DP  RH WIND       PRES   REMARKS
CHAMPAIGN      CLEAR     66  64  93 S5        30.03S FOG
DANVILLE*      CLEAR     67  66  96 S3        30.01R FOG
RANTOUL*       CLEAR     68  66  93 CALM      30.03S FOG
MATTOON          N/A     69  67  93 S3        30.02S FOG
PARIS*           N/A     67  66  97 CALM      30.05R FOG
$$

ILZ079-100>102-060800-
SOUTHWEST ILLINOIS

CITY           SKY/WX    TMP DP  RH WIND       PRES   REMARKS
ALTON          CLEAR     69  69 100 CALM      30.01S FOG
BELLEVILLE     CLEAR     69  69  99 SE2       30.00R
CAHOKIA*       CLEAR     72  68  87 CALM      30.00S FOG
SPARTA*        CLEAR     71  67  87 SE3       30.02S
$$

ILZ064>066-069>071-074>076-080>082-084>086-088>090-092>094-060800-
SOUTH-CENTRAL ILLINOIS

CITY           SKY/WX    TMP DP  RH WIND       PRES   REMARKS
CARBONDALE     PTCLDY    70  68  93 SE3       30.02S FOG
CAIRO*         CLEAR     74  73  95 S5        30.02S
EFFINGHAM*     CLEAR     68  65  90 CALM      30.04S FOG
MARION         CLOUDY    72  70  94 CALM      30.03S FOG
MT. VERNON     CLEAR     64  61  88 CALM      30.03S
CENTRALIA*     CLEAR     67  64  91 CALM      30.02F FOG
SALEM*         CLEAR     69  66  89 CALM      30.03S FOG
$$

ILZ067-068-072-073-078-083-087-091-060800-
SOUTHEAST ILLINOIS

CITY           SKY/WX    TMP DP  RH WIND       PRES   REMARKS
LAWRENCEVILLE  CLEAR     70  68  93 S3        30.03F FOG
FLORA*         CLEAR     67  66  97 CALM      30.03S FOG
FAIRFIELD*     CLEAR     68  67  98 CALM      30.02S FOG
HARRISBURG*    PTCLDY    66  66 100 CALM      30.03F FOG
ROBINSON*      CLEAR     69  68  94 S3        30.03F
CARMI*         CLEAR     68  64  85 CALM      30.02S FOG
$$

ABBREVIATIONS USED IN REMARKS
   TC - TEMPERATURE IN CELSIUS
  WCI - WIND CHILL INDEX
   HX - HEAT INDEX
  VSB - VISIBILITY
$$



USA.gov is the U.S. government's official web portal to all federal, state and local government web resources and services.